Location: Frankfurt am Main
(50.1109°N, 8.6821°E)
Time: 14:52:18
(UTC+02:00)

ISS - Visible Passes

Search period start: 16 July 2019 00:00
Search period end: 26 July 2019 00:00
Orbit: 409 x 418 km, 51.6° (Epoch: 16 July)

Date Brightness Start Highest point End Pass type
(mag) Time Alt. Az. Time Alt. Az. Time Alt. Az.
16 Jul -3.6 01:31:49 10° W 01:35:09 74° N 01:38:29 10° ENE visible
16 Jul -3.6 03:08:39 10° WNW 03:11:59 74° N 03:15:18 10° E visible
16 Jul -3.3 04:45:26 10° W 04:48:34 40° SSW 04:51:42 10° SE visible
16 Jul -2.9 23:06:31 10° SSW 23:09:23 27° SE 23:12:16 10° E visible
17 Jul -3.9 00:42:29 10° WSW 00:45:49 88° NNW 00:49:10 10° ENE visible
17 Jul -3.4 02:19:19 10° W 02:22:39 66° N 02:25:58 10° E visible
17 Jul -3.8 03:56:04 10° WNW 03:59:21 57° SSW 04:02:36 10° SE visible
17 Jul -2.3 22:17:52 10° S 22:20:15 18° SE 22:22:38 10° E visible
17 Jul -3.9 23:53:11 10° WSW 23:56:31 72° SSE 23:59:51 10° ENE visible
18 Jul -3.4 01:29:58 10° W 01:33:17 64° N 01:36:36 10° E visible
18 Jul -3.9 03:06:45 10° WNW 03:10:04 78° SSW 03:13:23 10° ESE visible
18 Jul -2.5 04:43:51 10° W 04:46:24 20° SW 04:48:55 10° SSE visible
18 Jul -3.7 23:04:00 10° SW 23:07:14 52° SSE 23:10:30 10° ENE visible
19 Jul -3.5 00:40:35 10° W 00:43:55 68° N 00:47:14 10° ENE visible
19 Jul -3.8 02:17:24 10° WNW 02:20:45 83° NNE 02:24:04 10° ESE visible
19 Jul -3.0 03:54:16 10° W 03:57:14 30° SSW 04:00:11 10° SSE visible
19 Jul -3.2 22:14:55 10° SW 22:18:00 36° SSE 22:21:06 10° E visible
19 Jul -3.7 23:51:13 10° W 23:54:33 77° NNW 23:57:53 10° ENE visible
20 Jul -3.6 01:28:03 10° WNW 01:31:24 71° N 01:34:43 10° E visible
20 Jul -3.5 03:04:49 10° W 03:08:01 44° SSW 03:08:59 33° SSE visible
20 Jul -3.9 23:01:50 10° WSW 23:05:12 87° SSE 23:08:33 10° ENE visible
21 Jul -3.4 00:38:41 10° W 00:42:00 65° N 00:45:11 11° E visible
21 Jul -3.2 02:15:25 10° WNW 02:17:54 44° W 02:17:54 44° W visible
21 Jul -3.8 22:12:32 10° WSW 22:15:51 66° SSE 22:19:10 10° ENE visible
21 Jul -3.4 23:49:16 10° W 23:52:36 65° N 23:55:55 10° E visible
22 Jul -3.9 01:26:03 10° WNW 01:29:16 80° WSW 01:29:16 80° WSW visible
22 Jul -3.5 22:59:51 10° W 23:03:11 70° N 23:06:32 10° ENE visible
23 Jul -3.8 00:36:41 10° WNW 00:40:02 79° NNE 00:41:01 42° E visible
23 Jul -1.2 02:13:30 10° W 02:13:47 12° W 02:13:47 12° W visible
23 Jul -3.7 22:10:25 10° W 22:13:47 81° NNW 22:17:08 10° ENE visible
23 Jul -3.5 23:47:16 10° WNW 23:50:37 69° N 23:52:54 18° E visible
24 Jul -2.2 01:24:02 10° WNW 01:25:42 26° W 01:25:42 26° W visible
24 Jul -3.4 22:57:51 10° W 23:01:11 65° N 23:04:30 10° E visible
25 Jul -3.8 00:34:36 10° WNW 00:37:42 65° SW 00:37:42 65° SW visible
25 Jul -3.4 22:08:23 10° W 22:11:44 66° N 22:15:03 10° E visible
25 Jul -3.9 23:45:11 10° WNW 23:48:32 89° SSW 23:49:44 37° ESE visible
